#timestamp,LO_Frequency,Hit,StdDev 
1657159215.2,286046999.7,N
1657159235.0,286046999.8,N
1657159235.9,286046999.8,N
1657159255.8,286047002.5,N
1657159275.6,286047001.2,N
1657159295.4,286047001.1,N
1657159315.3,286046998.5,N
1657159335.1,286047001.0,N
1657159355.8,286047000.0,N
1657159375.7,286046998.3,N
1657159395.5,286047000.8,N
1657159415.4,286047000.4,N
1657159435.2,286047000.2,N
1657159455.0,286046999.8,N
1657159455.9,286046999.8,N
1657159475.8,286047002.3,N
1657159495.6,286047002.6,N
1657159515.5,286047002.8,N
1657159535.3,286047002.6,N
1657159555.1,286047002.6,N
1657159575.9,286047002.2,N
1657159595.7,286047002.4,N
1657159615.5,286047001.8,N
1657159635.4,286047003.7,N
1657159655.2,286047002.1,N
1657159675.1,286047002.5,N
1657159676.0,286047002.5,N
1657159695.8,286047002.6,N
1657159715.6,286047000.2,N
1657159735.5,286047002.0,N
1657159755.3,286047002.2,N
1657159775.1,286046999.8,N
1657159795.9,286047002.3,N
1657159815.7,286046999.9,N
1657159835.6,286047000.4,N
1657159855.4,286046999.8,N
1657159875.2,286046999.7,N
1657159895.1,286047002.3,N
1657159896.0,286047002.3,N
1657159915.8,286047002.8,N
1657159935.6,286046999.9,N
1657159955.5,286047002.4,N
1657159975.3,286047000.1,N
1657159995.2,286047000.5,N
1657160015.9,286047000.1,N
1657160035.7,286047000.1,N
1657160055.6,286047000.2,N
1657160075.4,286046999.8,N
1657160095.2,286047000.2,N
1657160115.1,286047002.3,N
1657160116.0,286047002.3,N
1657160135.8,286047001.6,N
1657160155.7,286047001.5,N
1657160175.5,286047000.0,N
1657160195.4,286046998.7,N
1657160215.2,286046998.3,N
1657160235.0,286047001.1,N
1657160235.9,286047001.1,N
1657160255.8,286047000.4,N
1657160275.6,286047000.4,N
1657160295.5,286047002.3,N
1657160315.3,286047000.4,N
1657160335.1,286047000.3,N
1657160355.9,286047002.2,N
1657160375.7,286047002.1,N
1657160395.5,286047000.0,N
1657160415.4,286046999.7,N
1657160435.2,286047002.8,N
1657160455.1,286047002.4,N
1657160456.0,286047002.4,N
1657160475.8,286047001.5,N
1657160495.6,286047002.2,N
1657160515.5,286047001.7,N
1657160535.3,286047004.3,Y
1657160555.2,286047000.7,P
1657160575.9,286046998.9,P
1657160595.7,286046998.9,N
1657160615.6,286046998.6,N
1657160635.4,286046998.9,N
1657160655.2,286047001.2,N
1657160675.1,286047001.1,N
1657160676.0,286047001.1,N
1657160695.8,286047001.1,N
1657160715.7,286047000.5,N
1657160735.5,286047000.9,N
1657160755.3,286047001.0,N
1657160775.2,286047000.5,N
1657160795.0,286047000.6,N
1657160795.9,286047000.6,N
1657160815.8,286047000.1,N
1657160835.6,286047002.6,N
1657160855.4,286047002.7,N
1657160875.3,286047002.1,N
1657160895.1,286047000.5,N
1657160915.8,286046999.8,N
1657160935.7,286047001.6,N
1657160955.5,286047002.5,N
1657160975.4,286047000.2,N
1657160995.2,286047002.0,N
1657161015.0,286046999.8,N
1657161015.9,286046999.8,N
1657161035.8,286047002.5,N
1657161055.6,286047002.8,N
1657161075.5,286047002.8,N
1657161095.3,286047002.8,N
1657161115.1,286046999.8,N
1657161135.9,286047000.2,N
1657161155.7,286047000.5,N
1657161175.5,286046999.7,N
1657161195.4,286047002.7,N
1657161215.2,286047001.2,N
1657161235.1,286046998.9,N
1657161236.0,286046998.9,N
1657161255.8,286046998.5,N
1657161275.6,286047000.0,N
1657161295.5,286047000.9,N
1657161315.3,286047000.5,N
1657161335.1,286046999.9,N
1657161355.9,286046999.7,N
1657161375.7,286046999.8,N
1657161395.6,286047001.3,N
1657161415.4,286047001.9,N
1657161435.2,286047002.2,N
1657161455.1,286046999.7,N
1657161456.0,286046999.7,N
1657161475.8,286047001.5,N
1657161495.7,286047001.9,N
1657161515.5,286047001.3,N
1657161535.3,286047004.4,Y
1657161555.2,286047002.6,P
1657161575.0,286047002.4,N
1657161575.9,286047002.4,N
1657161595.8,286047001.9,N
1657161615.6,286047002.5,Y
1657161635.4,286047000.9,P
1657161655.3,286047001.0,N
1657161675.1,286047001.1,N
1657161695.8,286047001.2,N
1657161715.7,286047000.0,N
1657161735.5,286046998.5,N
1657161755.4,286046998.6,N
1657161775.2,286046998.7,N
1657161825.1,286046999.0,E
1657161835.9,286046998.2,N
1657161855.7,286047001.0,P
1657161875.6,286047000.9,N
1657161895.4,286046999.9,N
1657161915.2,286047000.3,N
1657161935.1,286047000.1,N
1657161936.0,286047000.1,N
1657161955.8,286047000.4,N
1657161975.7,286046998.3,N
1657161995.5,286046998.7,N
1657162015.3,286046998.4,N
1657162035.2,286046998.5,N
1657162055.0,286047000.6,N
1657162055.9,286047000.6,N
1657162075.8,286047000.5,N
1657162095.6,286047002.8,N
1657162115.4,286047002.1,N
1657162135.3,286047002.2,N
1657162155.1,286047001.7,N
1657162175.8,286047001.8,N
1657162195.7,286047002.0,N
1657162215.5,286047001.6,N
1657162235.4,286047001.5,N
1657162255.2,286047002.0,N
1657162275.0,286047001.5,N
1657162275.9,286047001.5,N
1657162295.8,286046999.7,N
1657162315.6,286047000.5,N
1657162335.4,286046999.0,N
1657162355.3,286046998.8,N
1657162375.1,286046998.4,N
1657162395.9,286046999.6,N
1657162415.7,286046997.3,N
1657162435.5,286046997.6,N
1657162455.4,286046997.1,N
1657162475.2,286046997.2,N
1657162495.1,286046997.6,N
1657162496.0,286046997.6,N
1657162515.8,286046996.8,N
1657162535.6,286046998.0,N
1657162555.5,286046997.3,N
1657162575.3,286046997.5,N
1657162595.1,286046996.5,N
1657162615.9,286046997.4,N
1657162635.7,286046997.4,N
1657162655.6,286046995.1,N
1657162675.4,286046995.1,N
1657162695.2,286046995.1,N
1657162715.1,286046997.9,N
1657162716.0,286046997.9,N
1657162735.8,286046995.2,N
1657162755.6,286046994.9,N
1657162775.5,286046995.1,N
1657162795.3,286046995.5,N
